Notices

What's New in latest Release from April 7th, 2021:

- Updated Glossary, including Speed of Maximum Gust, and Total Hourly Precipitation

- Updated national and regional climate services offices contacts and prices information

- Addition of station inventory lists for 1981-2010, 1971-2000, and 1961-1990 Normals.

If you haven't already, please take our survey and provide feedback about our website: https://eccc.sondage-survey.ca/f/LanguageSelection.aspx?s=442ca660-fcf1-47c0-95a9-59707d6fd709

Hourly Data Report for October 15, 2006

TORONTO CITY
ONTARIO

43°40'00.000" N
79°24'00.000" W
112.50 m
6158355
71508
XTO

Download Data

Hourly Data (October 2006)
Hourly Data Report for October 15, 2006
TIME
LST
Temp Definition
°C
Dew Point Definition
°C
Rel Hum Definition
%
Precip. Amount Definition
mm

Wind Dir Definition
10's deg

Wind Spd Definition
km/h
Visibility Definition
km
Stn Press Definition
kPa
Hmdx Definition


Wind Chill Definition


Weather Definition


00:00 5.5 -0.1 67   LegendMM LegendMM   99.82     LegendNANA
01:00 5.0 0.1 71   LegendMM LegendMM   99.87     LegendNANA
02:00 4.4 0.4 75   LegendMM LegendMM   99.90     LegendNANA
03:00 5.1 0.6 73   LegendMM LegendMM   99.93     LegendNANA
04:00 5.0 0.1 71   LegendMM LegendMM   99.97     LegendNANA
05:00 5.2 0.3 71   LegendMM LegendMM   100.02     LegendNANA
06:00 5.4 0.4 70   LegendMM LegendMM   100.07     LegendNANA
07:00 5.5 0.8 72   LegendMM LegendMM   100.11     LegendNANA
08:00 6.1 0.9 69   LegendMM LegendMM   100.19     LegendNANA
09:00 7.3 1.2 65   LegendMM LegendMM   100.28     LegendNANA
10:00 7.9 1.8 65   LegendMM LegendMM   100.32     LegendNANA
11:00 9.3 1.4 58   LegendMM LegendMM   100.33     LegendNANA
12:00 9.8 0.7 53   LegendMM LegendMM   100.35     LegendNANA
13:00 10.4 -0.3 47   LegendMM LegendMM   100.31     LegendNANA
14:00 10.7 -0.7 45   LegendMM LegendMM   100.27     LegendNANA
15:00 11.3 -0.2 45   LegendMM LegendMM   100.25     LegendNANA
16:00 11.4 -0.6 43   LegendMM LegendMM   100.27     LegendNANA
17:00 10.6 -1.3 43   LegendMM LegendMM   100.32     LegendNANA
18:00 9.7 -1.1 47   LegendMM LegendMM   100.39     LegendNANA
19:00 8.8 -0.5 52   LegendMM LegendMM   100.45     LegendNANA
20:00 6.7 0.1 63   LegendMM LegendMM   100.51     LegendNANA
21:00 7.8 0.6 60   LegendMM LegendMM   100.56     LegendNANA
22:00 7.1 1.6 68   LegendMM LegendMM   100.59     LegendNANA
23:00 6.1 1.6 73   LegendMM LegendMM   100.62     LegendNANA

Notes on Data Quality.

Legend

  • E = Estimated
  • M = Missing
  • NA = Not Available*
  • [empty] = Indicates an unobserved value
Date modified: